• In Belgium
  • List of Countries
  • For 7 days
  • Water Temperature
  • Satellite Maps
  • Weather Map
  • Weather Widgets
  • user-avatar
    Login

    Hourly Weather Lahaur

    Today, 15 November, Thursday

    Time Temperature Precipitation Wind Pressure Humidity
    00:00 +19°C° 0 mm 3 mps 742 mmHg 48%
    01:00 +19°C° 0 mm 2 mps 742 mmHg 48%
    02:00 +18°C° 0 mm 2 mps 742 mmHg 48%
    03:00 +18°C° 0 mm 2 mps 742 mmHg 48%
    04:00 +18°C° 0 mm 2 mps 742 mmHg 49%
    05:00 +18°C° 0 mm 1 mps 742 mmHg 50%
    06:00 +18°C° 0 mm 2 mps 743 mmHg 48%
    07:00 +19°C° 0 mm 2 mps 743 mmHg 46%
    08:00 +19°C° 0 mm 2 mps 744 mmHg 44%
    09:00 +21°C° 0 mm 2 mps 744 mmHg 39%
    10:00 +25°C° 0 mm 2 mps 744 mmHg 34%
    11:00 +27°C° 0 mm 3 mps 744 mmHg 29%
    12:00 +27°C° 0 mm 2 mps 744 mmHg 27%
    13:00 +28°C° 0 mm 2 mps 743 mmHg 25%
    14:00 +29°C° 0 mm 2 mps 743 mmHg 24%
    15:00 +28°C° 0 mm 2 mps 742 mmHg 25%
    16:00 +27°C° 0 mm 2 mps 742 mmHg 27%
    17:00 +26°C° 0 mm 2 mps 742 mmHg 28%
    18:00 +25°C° 0 mm 1 mps 742 mmHg 29%
    19:00 +24°C° 0 mm 1 mps 742 mmHg 31%
    20:00 +23°C° 0 mm 1 mps 742 mmHg 32%
    21:00 +21°C° 0 mm 2 mps 743 mmHg 33%
    22:00 +20°C° 0 mm 2 mps 743 mmHg 34%
    23:00 +20°C° 0 mm 2 mps 743 mmHg 35%

    Tomorrow, 16 November, Friday

    Time Temperature Precipitation Wind Pressure Humidity
    00:00 +19°C° 0 mm 2 mps 743 mmHg 36%
    01:00 +19°C° 0 mm 2 mps 742 mmHg 36%
    02:00 +18°C° 0 mm 2 mps 742 mmHg 37%
    03:00 +18°C° 0 mm 2 mps 742 mmHg 37%
    04:00 +18°C° 0 mm 2 mps 742 mmHg 38%
    05:00 +17°C° 0 mm 2 mps 741 mmHg 38%
    06:00 +18°C° 0 mm 2 mps 742 mmHg 37%
    07:00 +18°C° 0 mm 2 mps 742 mmHg 36%
    08:00 +19°C° 0 mm 2 mps 742 mmHg 35%
    09:00 +21°C° 0 mm 2 mps 743 mmHg 30%
    10:00 +24°C° 0 mm 3 mps 743 mmHg 25%
    11:00 +27°C° 0 mm 3 mps 743 mmHg 20%
    12:00 +28°C° 0 mm 3 mps 742 mmHg 18%
    13:00 +29°C° 0 mm 3 mps 741 mmHg 16%
    14:00 +29°C° 0 mm 3 mps 741 mmHg 14%
    15:00 +28°C° 0 mm 3 mps 740 mmHg 15%
    16:00 +27°C° 0 mm 2 mps 740 mmHg 16%
    17:00 +25°C° 0 mm 2 mps 740 mmHg 17%
    18:00 +24°C° 0 mm 2 mps 740 mmHg 18%
    19:00 +23°C° 0 mm 1 mps 740 mmHg 19%
    20:00 +22°C° 0 mm 1 mps 740 mmHg 20%
    21:00 +22°C° 0 mm 1 mps 740 mmHg 21%
    22:00 +21°C° 0 mm 1 mps 740 mmHg 21%
    23:00 +20°C° 0 mm 1 mps 740 mmHg 22%

    Day after tomorrow, 17 November, Saturday

    Time Temperature Precipitation Wind Pressure Humidity
    00:00 +20°C° 0 mm 1 mps 740 mmHg 22%
    01:00 +19°C° 0 mm 1 mps 740 mmHg 22%
    02:00 +19°C° 0 mm 1 mps 740 mmHg 23%
    03:00 +18°C° 0 mm 1 mps 740 mmHg 23%
    04:00 +18°C° 0 mm 1 mps 739 mmHg 23%
    05:00 +16°C° 0 mm 1 mps 739 mmHg 24%
    06:00 +18°C° 0 mm 1 mps 739 mmHg 23%
    07:00 +19°C° 0 mm 1 mps 740 mmHg 23%
    08:00 +19°C° 0 mm 1 mps 740 mmHg 23%
    09:00 +22°C° 0 mm 1 mps 740 mmHg 20%
    10:00 +24°C° 0 mm 1 mps 741 mmHg 17%
    11:00 +27°C° 0 mm 1 mps 741 mmHg 14%
    12:00 +27°C° 0 mm 1 mps 740 mmHg 13%
    13:00 +28°C° 0 mm 1 mps 740 mmHg 11%
    14:00 +29°C° 0 mm 1 mps 739 mmHg 10%
    15:00 +28°C° 0 mm 1 mps 739 mmHg 11%
    16:00 +26°C° 0 mm 1 mps 739 mmHg 12%
    17:00 +25°C° 0 mm 1 mps 738 mmHg 13%
    18:00 +24°C° 0 mm 1 mps 739 mmHg 14%
    19:00 +23°C° 0 mm 1 mps 739 mmHg 15%
    20:00 +22°C° 0 mm 1 mps 739 mmHg 16%
    21:00 +22°C° 0 mm 1 mps 740 mmHg 17%
    22:00 +21°C° 0 mm 1 mps 740 mmHg 18%
    23:00 +21°C° 0 mm 1 mps 740 mmHg 19%

    18 November, Sunday

    Time Temperature Precipitation Wind Pressure Humidity
    00:00 +20°C° 0 mm 1 mps 740 mmHg 20%
    01:00 +20°C° 0 mm 1 mps 740 mmHg 21%
    02:00 +20°C° 0 mm 1 mps 740 mmHg 22%
    03:00 +19°C° 0 mm 1 mps 740 mmHg 23%
    04:00 +19°C° 0 mm 1 mps 740 mmHg 24%
    05:00 +18°C° 0 mm 1 mps 740 mmHg 25%
    06:00 +19°C° 0 mm 1 mps 740 mmHg 25%
    07:00 +20°C° 0 mm 1 mps 741 mmHg 25%
    08:00 +20°C° 0 mm 1 mps 741 mmHg 25%
    09:00 +23°C° 0 mm 1 mps 741 mmHg 22%
    10:00 +25°C° 0 mm 1 mps 742 mmHg 19%
    11:00 +27°C° 0 mm 1 mps 742 mmHg 16%
    12:00 +28°C° 0 mm 1 mps 741 mmHg 14%
    13:00 +29°C° 0 mm 2 mps 741 mmHg 13%
    14:00 +30°C° 0 mm 2 mps 740 mmHg 12%
    15:00 +29°C° 0 mm 2 mps 740 mmHg 14%
    16:00 +27°C° 0 mm 2 mps 740 mmHg 15%
    17:00 +26°C° 0 mm 2 mps 740 mmHg 16%
    18:00 +25°C° 0 mm 2 mps 740 mmHg 17%
    19:00 +24°C° 0 mm 2 mps 741 mmHg 18%
    20:00 +23°C° 0 mm 2 mps 741 mmHg 19%
    21:00 +23°C° 0 mm 2 mps 741 mmHg 20%
    22:00 +21°C° 0 mm 2 mps 742 mmHg 21%
    23:00 +20°C° 0 mm 2 mps 742 mmHg 22%

    19 November, Monday

    Time Temperature Precipitation Wind Pressure Humidity
    00:00 +21°C° 0 mm 1 mps 742 mmHg 23%
    01:00 +20°C° 0 mm 1 mps 742 mmHg 24%
    02:00 +20°C° 0 mm 1 mps 741 mmHg 25%
    03:00 +20°C° 0 mm 1 mps 742 mmHg 26%
    04:00 +19°C° 0 mm 1 mps 742 mmHg 26%
    05:00 +19°C° 0 mm 1 mps 742 mmHg 27%
    06:00 +19°C° 0 mm 1 mps 742 mmHg 26%
    07:00 +20°C° 0 mm 1 mps 743 mmHg 25%
    08:00 +21°C° 0 mm 1 mps 743 mmHg 24%
    09:00 +23°C° 0 mm 1 mps 744 mmHg 21%
    10:00 +26°C° 0 mm 1 mps 744 mmHg 18%
    11:00 +28°C° 0 mm 1 mps 744 mmHg 15%
    12:00 +29°C° 0 mm 2 mps 743 mmHg 14%
    13:00 +30°C° 0 mm 2 mps 743 mmHg 13%
    14:00 +30°C° 0 mm 2 mps 742 mmHg 12%
    15:00 +29°C° 0 mm 2 mps 742 mmHg 14%
    16:00 +28°C° 0 mm 2 mps 742 mmHg 15%
    17:00 +26°C° 0 mm 1 mps 742 mmHg 16%
    18:00 +25°C° 0 mm 1 mps 742 mmHg 17%
    19:00 +24°C° 0 mm 1 mps 742 mmHg 18%
    20:00 +23°C° 0 mm 1 mps 743 mmHg 19%
    21:00 +23°C° 0 mm 1 mps 743 mmHg 19%
    22:00 +22°C° 0 mm 1 mps 743 mmHg 20%
    23:00 +22°C° 0 mm 1 mps 743 mmHg 21%

    20 November, Tuesday

    Time Temperature Precipitation Wind Pressure Humidity
    00:00 +21°C° 0 mm 1 mps 743 mmHg 22%
    01:00 +21°C° 0 mm 1 mps 743 mmHg 23%
    02:00 +20°C° 0 mm 1 mps 742 mmHg 24%
    03:00 +20°C° 0 mm 1 mps 742 mmHg 25%
    04:00 +19°C° 0 mm 1 mps 742 mmHg 25%
    05:00 +19°C° 0 mm 1 mps 742 mmHg 26%
    06:00 +20°C° 0 mm 1 mps 743 mmHg 26%
    07:00 +20°C° 0 mm 1 mps 744 mmHg 25%
    08:00 +21°C° 0 mm 1 mps 744 mmHg 25%
    09:00 +23°C° 0 mm 1 mps 744 mmHg 22%
    10:00 +25°C° 0 mm 1 mps 744 mmHg 19%
    11:00 +28°C° 0 mm 2 mps 745 mmHg 17%
    12:00 +28°C° 0 mm 2 mps 744 mmHg 16%
    13:00 +29°C° 0 mm 2 mps 743 mmHg 15%
    14:00 +30°C° 0 mm 3 mps 742 mmHg 14%
    15:00 +29°C° 0 mm 2 mps 742 mmHg 15%
    16:00 +27°C° 0 mm 2 mps 742 mmHg 16%
    17:00 +26°C° 0 mm 2 mps 742 mmHg 18%
    18:00 +25°C° 0 mm 1 mps 742 mmHg 18%
    19:00 +24°C° 0 mm 1 mps 743 mmHg 19%
    20:00 +23°C° 0 mm 1 mps 743 mmHg 20%
    21:00 +22°C° 0 mm 1 mps 743 mmHg 20%
    22:00 +21°C° 0 mm 2 mps 743 mmHg 21%
    23:00 +20°C° 0 mm 2 mps 743 mmHg 22%
    Show more